Location: Bacea
(45.9500°N, 22.6667°E)
Time: 00:51:26
(UTC+00:00)

Cosmos 1726 - Pass Details

Date: 16 October 2021
Orbit: 479 x 493 km, 82.5° (Epoch: 02 December)

Event Time Altitude Azimuth Distance (km) Brightness Sun altitude
Rises 16:17:57 0° 200° (SSW) 2,525 6.1 -7.1°
Reaches altitude 10° 16:20:05 10° 206° (SSW) 1,651 5.2 -7.5°
Maximum altitude 16:23:35 49° 282° (WNW) 627 3.1 -8.1°
Drops below altitude 10° 16:27:08 10° 359° (N) 1,667 4.8 -8.7°
Sets 16:29:18 0° 4° (N) 2,553 5.6 -9.1°
